Waarnemingen

Advertentie
Mijn weer
Maastricht, Nederland (6380): temperatuur & dauwpunt: 18.05.2019 04:00:00 - 24.05.2019 04:00:00 (CEST)Maastricht, Nederland (6380): temperatuur 5cm: 18.05.2019 04:00:00 - 24.05.2019 04:00:00 (CEST)Maastricht, Nederland (6380): windsnelheid & windstoten: 18.05.2019 04:00:00 - 24.05.2019 04:00:00 (CEST)Maastricht, Nederland (6380): windrichting: 18.05.2019 04:00:00 - 24.05.2019 04:00:00 (CEST)Maastricht, Nederland (6380): luchtdruk: 18.05.2019 04:00:00 - 24.05.2019 04:00:00 (CEST)Maastricht, Nederland (6380): zicht: 18.05.2019 04:00:00 - 24.05.2019 04:00:00 (CEST)Maastricht, Nederland (6380): neerslag: 18.05.2019 04:00:00 - 24.05.2019 04:00:00 (CEST)
Datum & Tijd tt [°C] td [°C] tt 5cm [°C] ff [km/u] ff [kn] fx [km/u] fx [kn] dd ppp [hPa] vv [km] rr [mm]
24.05.2019 04:00:00 - - - - - - - - - - -
24.05.2019 03:00:00 11,8 6,2 8,3 8 4 14 8 Z 1015,4 10 0,0
24.05.2019 02:00:00 13,2 6,0 9,1 9 5 14 8 ZZO 1015,7 10 0,0
24.05.2019 01:00:00 14,1 6,3 9,5 5 3 14 8 ZO 1016,1 10 0,0
24.05.2019 00:00:00 14,2 6,7 9,3 8 4 11 6 OZO 1016,4 10 0,0
23.05.2019 23:00:00 15,0 6,7 9,7 4 2 11 6 - 1016,5 10 0,0
23.05.2019 22:00:00 16,3 6,4 11,2 8 4 11 6 NO 1016,5 10 0,0
23.05.2019 21:00:00 17,9 5,2 14,1 8 4 14 8 NNW 1016,4 10 0,0
23.05.2019 20:00:00 20,3 4,3 16,1 9 5 18 10 NW 1016,5 10 0,0
23.05.2019 19:00:00 21,3 5,1 18,8 9 5 22 12 W 1016,8 10 0,0
23.05.2019 18:00:00 21,7 5,9 22,0 15 8 29 16 WNW 1016,9 10 0,0
23.05.2019 17:00:00 20,9 5,9 22,5 13 7 25 14 W 1017,1 10 0,0
23.05.2019 16:00:00 21,8 4,1 25,3 9 5 29 16 - 1017,2 10 0,0
23.05.2019 15:00:00 21,9 4,8 25,5 18 10 32 18 ZW 1017,5 10 0,0
23.05.2019 14:00:00 21,0 7,2 25,5 16 9 29 16 WZW 1017,9 10 0,0
23.05.2019 13:00:00 20,3 8,0 23,1 15 8 29 16 WZW 1018,3 10 0,0
23.05.2019 12:00:00 20,1 7,1 23,4 16 9 25 14 WZW 1018,8 10 0,0
23.05.2019 11:00:00 19,6 10,1 21,5 13 7 22 12 ZW 1018,9 10 0,0
23.05.2019 10:00:00 17,4 8,0 16,3 16 9 22 12 ZZW 1019,2 10 0,0
23.05.2019 09:00:00 14,9 6,9 12,4 11 6 14 8 ZZW 1019,2 10 0,0
23.05.2019 08:00:00 11,8 6,8 9,0 11 6 14 8 Z 1019,2 10 0,0
23.05.2019 07:00:00 9,5 5,9 5,7 9 5 18 10 Z 1018,8 10 0,0
23.05.2019 06:00:00 7,6 5,2 3,7 9 5 11 6 Z 1019,0 10 0,0
23.05.2019 05:00:00 7,8 5,0 3,9 4 2 7 4 ZZO 1019,2 10 0,0
23.05.2019 04:00:00 7,9 5,1 4,4 5 3 7 4 ZZO 1019,6 10 0,0
23.05.2019 03:00:00 9,2 5,3 5,2 5 3 4 2 ZZO 1019,8 10 0,0
23.05.2019 02:00:00 9,2 5,3 6,2 4 2 4 2 ZZO 1020,1 10 0,0
23.05.2019 01:00:00 10,6 5,2 7,4 0 0 4 2 N 1020,2 10 0,0
23.05.2019 00:00:00 11,2 4,7 8,4 2 1 7 4 - 1020,2 10 0,0
22.05.2019 23:00:00 13,0 4,3 9,8 5 3 11 6 NW 1020,2 10 0,0
22.05.2019 22:00:00 14,1 3,8 10,9 9 5 14 8 NW 1019,9 10 0,0
22.05.2019 21:00:00 15,5 3,1 12,9 8 4 22 12 WNW 1019,5 10 0,0
22.05.2019 20:00:00 17,7 4,2 15,1 11 6 22 12 NW 1019,4 10 0,0
22.05.2019 19:00:00 18,5 7,7 18,6 4 2 18 10 - 1019,1 10 0,0
22.05.2019 18:00:00 18,3 7,8 18,2 5 3 18 10 WNW 1019,4 10 0,0
22.05.2019 17:00:00 18,4 7,5 20,3 18 10 29 16 WZW 1019,6 10 0,0
22.05.2019 16:00:00 18,9 6,4 24,0 13 7 22 12 W 1019,7 10 0,0
22.05.2019 15:00:00 17,2 7,6 20,3 4 2 14 8 - 1020,0 10 0,0
22.05.2019 14:00:00 18,4 7,5 25,9 5 3 18 10 - 1020,1 10 0,0
22.05.2019 13:00:00 17,4 8,0 25,9 9 5 18 10 ZZW 1020,3 10 0,0
22.05.2019 12:00:00 15,5 7,8 24,7 5 3 14 8 - 1020,5 10 0,0
22.05.2019 11:00:00 14,7 8,2 22,3 5 3 14 8 - 1020,3 10 0,0
22.05.2019 10:00:00 12,6 6,9 17,9 8 4 18 10 W 1020,4 10 0,0
22.05.2019 09:00:00 10,8 6,5 12,2 8 4 18 10 W 1020,2 10 0,0
22.05.2019 08:00:00 10,4 7,1 10,8 5 3 14 8 WZW 1020,0 9 0,0
22.05.2019 07:00:00 9,7 6,8 9,7 5 3 14 8 W 1019,7 8 0,0
22.05.2019 06:00:00 9,6 7,1 9,3 8 4 18 10 NW 1019,6 7 0,0
22.05.2019 05:00:00 9,6 7,4 9,6 8 4 14 8 WNW 1019,2 8 0,0
22.05.2019 04:00:00 9,7 7,7 9,9 9 5 14 8 NW 1019,0 9 0,0
22.05.2019 03:00:00 9,8 7,9 9,7 11 6 22 12 NW 1018,8 9 0,0
22.05.2019 02:00:00 10,0 8,2 9,9 11 6 18 10 NW 1018,7 9 0,0
22.05.2019 01:00:00 10,4 8,4 9,3 8 4 18 10 W 1018,7 10 0,0
22.05.2019 00:00:00 10,9 8,7 10,5 9 5 22 12 W 1018,7 10 0,0
21.05.2019 23:00:00 11,4 8,9 10,7 11 6 25 14 W 1018,3 10 0,0
21.05.2019 22:00:00 12,6 8,9 10,5 8 4 18 10 WNW 1017,9 10 0,0
21.05.2019 21:00:00 13,2 8,9 11,7 15 8 25 14 NW 1017,1 10 0,0
21.05.2019 20:00:00 14,1 8,9 12,6 13 7 29 16 WNW 1016,7 10 0,0
21.05.2019 19:00:00 15,4 9,2 14,3 13 7 29 16 NW 1016,3 10 0,0
21.05.2019 18:00:00 15,0 9,2 15,0 15 8 29 16 NW 1016,1 10 0,0
21.05.2019 17:00:00 15,1 9,5 15,6 11 6 29 16 WNW 1015,8 10 0,0
21.05.2019 16:00:00 15,0 9,9 15,7 11 6 25 14 WNW 1015,5 10 0,0
21.05.2019 15:00:00 13,6 10,5 14,2 8 4 22 12 W 1015,3 10 0,0
21.05.2019 14:00:00 11,7 9,4 12,1 16 9 32 18 WNW 1015,3 8 0,0
21.05.2019 13:00:00 11,3 9,6 12,0 13 7 29 16 WNW 1014,8 6 0,0
21.05.2019 12:00:00 10,9 9,5 11,6 15 8 32 18 WNW 1014,4 5 0,0
21.05.2019 11:00:00 10,5 9,4 11,4 13 7 32 18 NW 1014,0 4,4 0,0
21.05.2019 10:00:00 10,2 9,7 11,1 15 8 32 18 WNW 1013,4 2,8 0,0
21.05.2019 09:00:00 10,2 10,0 10,8 15 8 32 18 WNW 1012,8 1,3 0,0
21.05.2019 08:00:00 10,2 10,0 10,7 15 8 32 18 WNW 1012,5 1,6 0,0
21.05.2019 07:00:00 10,2 10,0 10,7 15 8 29 16 WNW 1012,2 1,6 0,0
21.05.2019 06:00:00 10,1 9,9 10,5 15 8 29 16 W 1011,9 1,3 0,0
21.05.2019 05:00:00 10,2 9,9 10,6 15 8 29 16 WNW 1011,3 2,3 0,0
21.05.2019 04:00:00 10,5 10,2 10,9 11 6 25 14 WNW 1011,3 2,4 0,0
21.05.2019 03:00:00 10,7 9,9 10,9 13 7 32 18 W 1011,3 3,2 0,0
21.05.2019 02:00:00 11,3 10,0 11,2 13 7 25 14 WNW 1011,3 4,9 0,0
21.05.2019 01:00:00 11,6 10,2 11,5 15 8 36 19 NW 1011,0 4,7 0,0
21.05.2019 00:00:00 12,1 11,0 12,0 13 7 25 14 WNW 1011,1 4,0 0,0
20.05.2019 23:00:00 11,9 11,4 12,1 13 7 25 14 W 1010,9 3,0 0,0
20.05.2019 22:00:00 12,4 11,2 12,3 9 5 25 14 W 1010,8 8 0,0
20.05.2019 21:00:00 12,9 11,0 12,7 13 7 25 14 NW 1010,3 9 0,0
20.05.2019 20:00:00 13,2 11,2 13,0 13 7 25 14 W 1009,7 9 0,0
20.05.2019 19:00:00 13,3 11,1 13,4 11 6 22 12 W 1009,7 8 0,0
20.05.2019 18:00:00 13,5 11,1 13,9 15 8 25 14 WNW 1009,7 7 0,0
20.05.2019 17:00:00 13,3 11,4 14,5 11 6 25 14 WNW 1009,5 6 0,0
20.05.2019 16:00:00 13,7 11,5 14,9 11 6 25 14 WNW 1009,3 7 0,0
20.05.2019 15:00:00 13,9 11,0 16,2 11 6 22 12 WNW 1009,3 8 0,0
20.05.2019 14:00:00 13,7 11,0 16,1 11 6 18 10 W 1009,3 6 0,0
20.05.2019 13:00:00 13,0 10,8 15,6 11 6 22 12 WNW 1009,1 6 0,0
20.05.2019 12:00:00 13,3 10,9 15,7 11 6 22 12 W 1008,6 6 0,0
20.05.2019 11:00:00 13,3 11,3 15,3 8 4 18 10 W 1008,3 6 0,0
20.05.2019 10:00:00 13,1 11,0 14,5 9 5 18 10 WNW 1008,0 6 0,0
20.05.2019 09:00:00 12,5 11,0 13,9 9 5 14 8 WNW 1007,9 4,7 0,0
20.05.2019 08:00:00 11,9 10,7 12,6 8 4 14 8 WNW 1007,6 4,7 0,0
20.05.2019 07:00:00 12,0 10,8 12,5 8 4 14 8 NW 1007,3 4,7 0,0
20.05.2019 06:00:00 11,9 11,4 12,3 11 6 18 10 NW 1006,9 2,1 0,0
20.05.2019 05:00:00 12,3 11,8 12,5 8 4 14 8 WNW 1006,8 2,3 0,0
20.05.2019 04:00:00 12,4 12,2 12,6 8 4 11 6 NW 1006,7 2,1 0,0
20.05.2019 03:00:00 12,3 12,2 12,8 9 5 14 8 NW 1006,6 1,8 0,0
20.05.2019 02:00:00 12,5 12,3 12,4 8 4 18 10 W 1006,4 1,4 0,0
20.05.2019 01:00:00 12,9 12,6 12,9 4 2 11 6 - 1006,8 2,3 0,0
20.05.2019 00:00:00 13,0 12,5 11,8 5 3 14 8 NW 1006,6 3,2 0,0
19.05.2019 23:00:00 11,8 11,4 11,6 5 3 14 8 ZW 1006,4 7 0,0
19.05.2019 22:00:00 13,1 12,5 12,8 8 4 14 8 W 1006,2 8 0,0
19.05.2019 21:00:00 13,4 12,6 13,4 8 4 22 12 W 1005,6 10 0,0
19.05.2019 20:00:00 14,4 13,3 14,9 11 6 25 14 NNW 1005,8 10 0,8
19.05.2019 19:00:00 16,0 11,9 15,9 9 5 22 12 NW 1005,5 8 0,6
19.05.2019 18:00:00 17,9 12,7 19,9 15 8 32 18 NW 1004,7 10 0,0
19.05.2019 17:00:00 18,2 12,9 18,5 9 5 14 8 WZW 1004,7 10 0,2
19.05.2019 16:00:00 20,0 14,9 20,1 13 7 25 14 Z 1004,7 9 0,0
19.05.2019 15:00:00 21,0 12,3 25,6 5 3 14 8 - 1004,9 10 0,0
19.05.2019 14:00:00 20,3 12,6 25,0 5 3 18 10 - 1005,1 10 0,0
19.05.2019 13:00:00 19,9 13,0 25,5 5 3 14 8 - 1005,3 9 0,0
19.05.2019 12:00:00 19,6 13,6 28,4 9 5 18 10 N 1005,4 6 0,0
19.05.2019 11:00:00 18,0 13,2 24,2 8 4 14 8 NNW 1005,7 6 0,0
19.05.2019 10:00:00 17,1 12,9 22,1 8 4 11 6 N 1005,7 5 0,0
19.05.2019 09:00:00 15,3 12,6 18,0 9 5 11 6 NW 1005,7 6 0,0
19.05.2019 08:00:00 13,4 12,3 13,4 5 3 11 6 W 1005,6 5 0,0
19.05.2019 07:00:00 12,5 11,9 12,2 5 3 11 6 W 1005,6 6 0,0
19.05.2019 06:00:00 12,3 12,0 12,1 11 6 11 6 ZW 1005,5 2,8 0,0
19.05.2019 05:00:00 12,4 12,2 11,8 5 3 11 6 ZZW 1005,5 2,8 0,0
19.05.2019 04:00:00 12,2 11,9 11,5 5 3 7 4 ZZW 1005,6 3,7 0,0
19.05.2019 03:00:00 12,5 12,1 11,5 9 5 7 4 ZW 1005,8 5 0,0
19.05.2019 02:00:00 12,9 12,6 11,6 4 2 7 4 Z 1006,2 6 0,0
19.05.2019 01:00:00 13,0 12,6 11,7 5 3 11 6 Z 1006,6 4,1 0,0
19.05.2019 00:00:00 12,8 12,2 12,5 5 3 11 6 ZZW 1006,6 7 0,0
18.05.2019 23:00:00 14,1 13,0 12,7 9 5 11 6 ZZW 1007,0 9 0,0
18.05.2019 22:00:00 14,4 12,6 13,6 4 2 7 4 WZW 1006,8 10 0,0
18.05.2019 21:00:00 14,9 13,3 14,8 4 2 7 4 ZZW 1006,2 10 0,0
18.05.2019 20:00:00 16,3 13,5 16,1 5 3 11 6 ZZO 1006,0 10 0,0
18.05.2019 19:00:00 17,4 12,5 17,5 4 2 11 6 - 1005,9 10 0,0
18.05.2019 18:00:00 16,9 13,0 17,2 9 5 14 8 OZO 1005,7 10 0,0
18.05.2019 17:00:00 15,5 13,5 15,7 15 8 29 16 O 1005,7 10 0,5
18.05.2019 16:00:00 17,4 11,9 20,5 5 3 29 16 - 1005,7 10 0,0
18.05.2019 15:00:00 19,9 11,1 24,9 4 2 14 8 - 1005,5 10 0,0
18.05.2019 14:00:00 19,5 12,2 26,4 4 2 11 6 O 1005,8 10 0,0
18.05.2019 13:00:00 17,1 12,1 26,1 4 2 14 8 - 1006,1 9 0,0
18.05.2019 12:00:00 15,6 12,1 23,6 5 3 14 8 WNW 1006,3 7 0,0
18.05.2019 11:00:00 13,8 11,3 16,4 5 3 11 6 ZZW 1006,3 7 0,0
18.05.2019 10:00:00 12,3 10,6 15,0 4 2 7 4 - 1006,3 5 0,0
18.05.2019 09:00:00 11,0 10,5 12,8 5 3 11 6 W 1006,2 3,9 0,0
18.05.2019 08:00:00 10,2 10,1 11,6 5 3 7 4 W 1005,7 0,2 0,0
18.05.2019 07:00:00 10,0 9,9 10,9 2 1 7 4 - 1005,5 0,1 0,0
18.05.2019 06:00:00 9,9 9,9 10,6 4 2 7 4 - 1005,2 0,2 0,0
18.05.2019 05:00:00 9,8 9,8 10,6 2 1 7 4 - 1005,4 0,2 0,0
18.05.2019 04:00:00 10,4 10,3 10,2 2 1 4 2 - 1005,6 0,2 0,0

tt = temperatuur
td = dauwpunt
tt 5cm = temperatuur 5cm
ff = windsnelheid
fx = windstoten
dd = windrichting
ppp = luchtdruk
vv = zicht
rr = neerslag

Weerstations in de omgeving